Regional Weather Roundup
Issued by NWS

Home | Current Version | Previous Version | Text Only | Print | Product List | Glossary Off
Versions: 1 2 3 4 5 6 7 8 9 10 11 12 13 14 15 16 17 18 19 20 21 22 23 24 25 26 27 28 29 30 31 32 33 34 35 36 37 38 39 40 41 42 43 44 45 46 47 48 49 50

000
ASUS43 KFSD 291810
RWRSD

WEATHER ROUNDUP FOR SOUTH DAKOTA
NATIONAL WEATHER SERVICE SIOUX FALLS SD
100 PM CDT SUN MAY 29 2016

NOTE: "FAIR" INDICATES FEW OR NO CLOUDS BELOW 12,000 FEET WITH NO
SIGNIFICANT WEATHER AND/OR OBSTRUCTIONS TO VISIBILITY.


SDZ001>005-009-010-012>017-291900-
NORTHWEST AND NORTH CENTRAL SOUTH DAKOTA

CITY           SKY/WX    TMP DP  RH WIND       PRES   REMARKS
BUFFALO          N/A     73  41  31 S8        29.98F
FAITH            N/A     72  49  44 S9        30.05F
MOBRIDGE       SUNNY     73  45  36 CALM      30.03S
$$

SDZ012>016-024>037-041>051-057-063-072>074-291900-
SOUTHWEST AND SOUTH CENTRAL SOUTH DAKOTA

CITY           SKY/WX    TMP DP  RH WIND       PRES   REMARKS
RAPID CTY ARPT MOSUNNY   71  50  47 SE8G17    30.08F
PIERRE         SUNNY     73  48  41 VRB3      30.05F
CUSTER         MOSUNNY   61  42  49 SE8G23    30.16F
ELLSWORTH AFB  SUNNY     71  52  51 SE8       30.08F
PHILIP         SUNNY     74  54  49 SE10      30.06F
PINE RIDGE     SUNNY     74  49  41 S9        30.08F
WINNER         FAIR      76  55  48 S7        30.08S
$$

SDZ004>011-016>023-039-040-291900-
NORTHEAST SOUTH DAKOTA

CITY           SKY/WX    TMP DP  RH WIND       PRES   REMARKS
ABERDEEN       SUNNY     77  46  33 N14       30.02S
WATERTOWN      SUNNY     74  50  42 NW14G22   30.03S
BROOKINGS      SUNNY     72  53  51 NW16      30.04S
SISSETON         N/A     75  49  39 N18       29.98R
$$

SDZ017-020-022-023-036>040-048>070-291900-
SOUTHEAST SOUTH DAKOTA

CITY           SKY/WX    TMP DP  RH WIND       PRES   REMARKS
SIOUX FALLS    MOSUNNY   74  56  53 NW12G21   30.06S
HURON          SUNNY     75  54  47 NW8       30.04F
CHAMBERLAIN    SUNNY     75  56  52 NE3       30.07S
MITCHELL       SUNNY     75  52  44 N3        30.06F
YANKTON        SUNNY     73  61  64 NW8       30.06F
$$

ABBREVIATIONS USED IN REMARKS
   TC - TEMPERATURE IN CELSIUS
  WCI - WIND CHILL INDEX
   HX - HEAT INDEX
  VSB - VISIBILITY




USA.gov is the U.S. government's official web portal to all federal, state and local government web resources and services.